Weather in Putbus

Germany     54°21′21″N   13°28′32″E
temp.,
°C
wind,
m/s
gust,
m/s
humid.,
%
clouds,
%
prec.,
mm/h
press.,
hPa
HPBL,
m
17 april, sat
sat1723:00+6n61066100 0.0 1024403
02:00+6nne61070100 0.0 1024399
05:00+5nne697797 0.0 1023420
08:00+5ne6884100 0.0 1024408
11:00+6ne5784100 0.0 1024324
14:00+7nne578551 0.0 1024254
17:00+7nne5887100 0.0 1023222
20:00+6ne61189100 0.5 1023308
18 april, sun
sun1823:00+6ne699058 0.1 1023349
02:00+5ene689456 0.1 1023292
05:00+5ne579417 0.0 1022228
08:00+6ne5793100 0.0 1023234
11:00+6ne5792100 0.0 1023233
14:00+7ne689393 0.0 1023187
17:00+7ne61091100 0.0 1022201
20:00+7ne71291100 0.1 1022252
19 april, mon
mon1923:00+6ene7129091 0.0 1022325
02:00+6ene589095 0.0 1022209
05:00+6ene4690100 0.0 1022227
08:00+6ne5690100 0.0 1022223
11:00+6ene5691100 0.0 1022197
14:00+7ne579090 0.0 1022203
17:00+7ne69865 0.0 1021180
20:00+6ne611864 0.0 1021202
20 april, tue
tue2023:00+6ne610860 0.0 1020184
02:00+6nne58880 0.0 1019180
05:00+5ne58901 0.0 1018215
08:00+6ne579099 0.0 1018193
11:00+8ene5978100 0.0 1018254
14:00+8ene57756 0.0 1018294
17:00+8ne57795 0.0 1017220
20:00+7ne33845 0.0 101734
21 april, wed
wed2123:00+6n22854 0.0 101728
02:00+6wnw22805 0.0 101619
05:00+5w46815 0.0 1015114
08:00+6w61178100 0.0 1015354
11:00+8wnw81182100 0.1 1015560
14:00+8wnw912605 0.3 1015674
17:00+8wnw1012615 0.0 1015774
20:00+7w101566100 0.0 1015651